Regional Weather Roundup
Issued by NWS

Home | Current Version | Previous Version | Text Only | Print | Product List | Glossary Off
Versions: 1 2 3 4 5 6 7 8 9 10 11 12 13 14 15 16 17 18 19 20 21 22 23 24 25 26 27 28 29 30 31 32 33 34 35 36 37 38 39 40 41 42 43 44 45 46 47 48 49 50

048
ASUS44 KMEG 221710
RWRTN
TENNESSEE HOURLY STATE WEATHER ROUNDUP
NATIONAL WEATHER SERVICE MEMPHIS TN
1200 PM CDT MON MAY 22 2017

TNZ002-004-019-021-049-052-054-088>092-221800-
WEST TENNESSEE

CITY           SKY/WX    TMP DP  RH WIND       PRES   REMARKS
MEMPHIS INTL   CLOUDY    71  49  45 NE14      30.08F
NWS MEMPHIS      N/A     70 N/A N/A MISG        N/A
JACKSON        CLOUDY    71  51  49 E8        30.11F
DYERSBURG      CLOUDY    70  49  47 E7        30.12F
SOMERVILLE     SUNNY     70  52  52 VRB5G12   30.08F
COVINGTON      SUNNY     68  54  60 E7        30.10F
UNION CITY     SUNNY     68  50  52 E8        30.11F
BOLIVAR        SUNNY     70  54  56 VRB7      30.09F
PARIS          SUNNY     68  52  56 E8        30.11F
HUNTINGDON     SUNNY     70  52  52 E7        30.11S
SELMER         SUNNY     70  54  56 E7        30.09F
SAVANNAH       SUNNY     72  55  56 NE7       30.09F
$$

TNZ008-025-027-028-033-062-065-066-221800-
NORTH MIDDLE TENNESSEE

CITY           SKY/WX    TMP DP  RH WIND       PRES   REMARKS
NASHVILLE      PTSUNNY   71  48  43 NE8       30.12F
PORTLAND       SUNNY     66  50  55 VRB7G13   30.12F
CLARKSVILLE    CLOUDY    69  45  41 NE10      30.12F
SMYRNA         PTSUNNY   70  52  52 N8        30.12F
COOKEVILLE     MOSUNNY   70  57  64 N6        30.10F
GALLATIN       SUNNY     70  50  49 NE6G13    30.14F
CROSSVILLE     CLOUDY    66  56  70 VRB3      30.12F
$$

TNZ061-075-076-078-094-096-097-221800-
SOUTH MIDDLE TENNESSEE

CITY           SKY/WX    TMP DP  RH WIND       PRES   REMARKS
FAYETTEVILLE   SUNNY     72  61  68 NE9       30.08F
TULLAHOMA      SUNNY     70  55  60 N5        30.11F
WINCHESTER     SUNNY     72  61  68 N6        30.09F
MCMINNVILLE    MOSUNNY   70  61  73 NE7       30.10F
COLUMBIA       SUNNY     70  52  52 NE9       30.08F
SHELBYVILLE    MOSUNNY   70  59  68 N8        30.10F
$$

TNZ017-018-042-046-047-221800-
NORTHEAST TENNESSEE

CITY           SKY/WX    TMP DP  RH WIND       PRES   REMARKS
TRI CITIES     CLOUDY    73  62  68 VRB6      30.09F
ELIZABETHTON   DRIZZLE   72  63  73 NW5       30.09F
$$

TNZ012-013-036-069-073-074-221800-
CENTRAL EAST TENNESSEE

CITY           SKY/WX    TMP DP  RH WIND       PRES   REMARKS
KNOXVILLE      CLOUDY    68  58  70 N9        30.08F
OAK RIDGE      CLOUDY    69  57  65 VRB5      30.10F
GATLINBURG     CLOUDY    66  61  82 VRB7      30.10S
MORRISTOWN     PTSUNNY   68  63  83 N6        30.10F
JACKSBORO      MOSUNNY   66  57  72 NE9       30.13F
$$

TNZ083-085-099-221800-
SOUTHEAST TENNESSEE

CITY           SKY/WX    TMP DP  RH WIND       PRES   REMARKS
CHATTANOOGA    CLOUDY    72  60  66 NE8       30.07F
$$

SKY/WX REPORTED AS FAIR MEANS FEW OR NO CLOUDS BELOW
12 THOUSAND FEET.





USA.gov is the U.S. government's official web portal to all federal, state and local government web resources and services.